[[{"header":{"parameterUnit":"m.s-1","parameterCategory":1,"la1":30.2991,"la2":30.254,"lo1":-89.0895,"lo2":-89.0444,"dy":0.0017,"dx":0.0017,"nx":28,"ny":28,"refTime":"2024-03-22T21:00:00:Z","depth":0,"parameterNumber":2,"parameterNumberName":"U-component_of_WINDS"},"data":[0,0,0,0,0,0,0,0,0,0,0,0,0,0,0,0,0,0,0,0,0,0,0,0,0,0,0,0,0,0,0,0,0,0,0,0,0,0,0,0,0,0,0,0,0,0,0,0,0,0,0,0,0,0,0,0,0,0,1.105,1.105,0,1.1063,1.1063,1.1064,1.1051,1.105,1.105,1.1049,1.1062,1.1062,1.1063,0,0,0,0,0,0,0,0,0,0,0,0,0,1.1016,1.1016,1.105,1.105,1.1051,1.1063,1.1063,1.1064,1.1051,1.105,1.105,1.1049,1.1061,1.1062,1.1063,0,0,0,0,0,0,0,0,0,0,0,0,0,1.103,1.1017,1.105,1.1046,1.1046,1.1063,1.1063,1.1064,1.1051,1.105,1.105,1.1049,1.1061,1.1062,1.1063,1.1086,0,0,1.1067,1.1067,0,0,0,0,0,0,0,0,1.1029,1.1031,1.1046,1.1046,1.1046,1.1055,1.1056,1.1071,1.1051,1.1049,1.1049,1.1049,1.106,1.1061,1.1065,1.1086,1.1087,1.1067,1.1068,1.1068,1.1069,0,0,0,0,0,0,0,1.1028,1.103,1.1055,1.1047,1.1046,1.1044,1.1045,1.1058,1.1058,1.1049,1.1048,1.105,1.106,1.1064,1.1065,1.1087,1.1067,1.1068,1.1069,1.1069,1.1129,1.113,0,0,0,0,0,0,1.1028,1.103,1.1055,1.1056,1.1036,1.1045,1.1046,1.1053,1.1058,1.1058,1.1051,1.1049,1.1062,1.1064,1.1066,1.1093,1.1068,1.1069,1.107,1.1128,1.1129,1.113,0,0,0,0,0,0,1.1027,1.103,1.1054,1.1043,1.1046,1.1046,1.1054,1.1053,1.1058,1.1059,1.1059,1.1055,1.1062,1.1064,1.1081,1.1093,1.107,1.1071,1.1127,1.1129,1.113,1.1148,0,0,0,0,0,0,1.1026,1.103,1.1038,1.1043,1.1046,1.107,1.1054,1.1054,1.106,1.1058,1.1064,1.1064,1.1061,1.108,1.1082,1.1095,1.1072,1.1126,1.1128,1.1129,1.1146,1.115,1.1153,0,0,0,0,0,1.1025,1.1042,1.1038,1.1041,1.1056,1.107,1.1072,1.1069,1.1061,1.1069,1.1071,1.1063,1.1092,1.1081,1.1085,1.1097,1.1125,1.1127,1.1129,1.1145,1.1149,1.1153,0,0,0,0,0,0,1.1037,1.1042,1.1038,1.1057,1.1064,1.1068,1.1078,1.1074,1.1082,1.108,1.1077,1.1078,1.1097,1.1099,1.1087,1.112,1.1107,1.111,1.1118,1.1122,1.1125,1.1124,1.1073,0,0,0,0,0,1.1042,1.1053,1.1057,1.1073,1.1077,1.1077,1.1083,1.1081,1.1087,1.1089,1.1092,1.1098,1.1109,1.1116,1.1125,1.1147,1.1149,1.1158,1.1161,1.1164,1.1166,1.1179,1.1184,1.1137,1.1137,1.1137,0,0,1.1052,1.1056,1.1063,1.1076,1.108,1.1092,1.1079,1.1092,1.1101,1.1091,1.1108,1.1111,1.1117,1.1138,1.1147,1.114,1.1179,1.1166,1.1168,1.1169,1.1182,1.1186,1.119,1.1138,1.1138,1.1138,0,0,1.1076,1.1081,1.1095,1.1101,1.1109,1.1109,1.1113,1.1119,1.1121,1.1138,1.1131,1.1142,1.116,1.1166,1.1171,1.1201,1.1195,1.1205,1.1221,1.1234,1.1238,1.1241,1.1253,1.1257,1.1207,1.1207,1.1207,0,1.1088,1.1105,1.1104,1.1118,1.1124,1.1117,1.1133,1.1138,1.1148,1.1153,1.1146,1.117,1.1174,1.1196,1.1204,1.1208,1.1213,1.1203,1.1238,1.1241,1.1244,1.1255,1.1259,1.1208,1.1208,1.1208,1.1208,0,1.112,1.1132,1.1144,1.1155,1.1163,1.1177,1.1178,1.1187,1.1185,1.1187,1.1205,1.121,1.1222,1.1227,1.1224,1.125,1.1246,1.1238,1.1225,1.125,1.126,1.1264,1.121,1.1209,1.1209,1.1209,0,0,1.115,1.1162,1.1166,1.1172,1.1182,1.1192,1.1207,1.1219,1.1227,1.1235,1.1248,1.1265,1.1259,1.1265,1.1263,1.1275,1.13,1.1266,1.1267,1.1273,1.133,1.1335,1.134,1.1297,1.1298,1.1298,1.133,0,1.1175,1.1202,1.1202,1.1227,1.1239,1.1235,1.1248,1.1256,1.1259,1.127,1.1273,1.1285,1.1276,1.128,1.1291,1.1295,1.1312,1.1293,1.1309,1.131,1.1308,1.1346,1.1351,1.138,1.1334,1.1334,1.1335,0,1.1208,1.1218,1.1245,1.1254,1.126,1.1272,1.1284,1.1295,1.1304,1.1306,1.1314,1.1311,1.1328,1.1315,1.1339,1.1326,1.1333,1.1336,1.1337,1.1338,1.1324,1.1348,1.1389,1.1394,1.1341,1.134,1.134,0,1.1228,1.1249,1.1268,1.1273,1.1285,1.1294,1.1299,1.1308,1.1316,1.1327,1.1332,1.1345,1.1352,1.1362,1.1364,1.1354,1.1388,1.1374,1.139,1.139,1.1396,1.1396,1.1439,1.1401,1.1401,1.1401,1.1401,0,1.1256,1.1272,1.1277,1.1289,1.1308,1.1309,1.1328,1.1332,1.1341,1.1354,1.135,1.1363,1.1364,1.1377,1.1378,1.1398,1.1401,1.1403,1.1403,1.1403,1.1403,1.1408,1.1406,1.1402,1.1402,1.1402,1.1401,0,1.1281,1.1285,1.1306,1.1316,1.1319,1.1333,1.1342,1.1353,1.1357,1.1374,1.1378,1.1383,1.1399,1.1402,1.1419,1.142,1.1445,1.1442,1.1442,1.1441,1.1457,1.1455,1.1504,1.1511,1.1469,1.1469,1.1469,0,1.1298,1.1311,1.1324,1.1333,1.1339,1.1353,1.1362,1.1364,1.1374,1.1387,1.1397,1.1413,1.1425,1.145,1.1456,1.147,1.1469,1.1485,1.1471,1.1471,1.147,1.1469,1.1471,1.1488,1.1488,1.1488,1.1489,0,1.1329,1.1332,1.1344,1.1359,1.137,1.1381,1.1392,1.14,1.1404,1.1415,1.1431,1.1441,1.1461,1.1476,1.1491,1.1497,1.1494,1.1494,1.1498,1.1498,1.1497,1.1499,1.1449,1.1492,1.1492,1.1491,1.1491,1.1491,1.1351,1.1363,1.1375,1.139,1.1399,1.141,1.1422,1.1428,1.1442,1.1458,1.1459,1.1477,1.1489,1.1509,1.1516,1.1531,1.1525,1.1531,1.1533,1.1535,1.1537,1.1495,1.1533,1.1533,1.1533,1.1533,1.1533,0,1.1383,1.1391,1.1405,1.1421,1.1433,1.1431,1.1443,1.1454,1.147,1.1481,1.1495,1.1515,1.1531,1.1539,1.1555,1.1565,1.1564,1.1569,1.1569,1.157,1.154,1.1535,1.157,1.157,1.157,1.157,1.157,1.157,1.14,1.1421,1.1425,1.1451,1.1458,1.1477,1.1484,1.1495,1.1504,1.1527,1.1541,1.1546,1.1557,1.1574,1.1589,1.1591,1.1598,1.1603,1.1605,1.1576,1.1572,1.1569,1.1564,1.1605,1.1605,1.1634,1.1635,1.1635]},{"header":{"parameterUnit":"m.s-1","parameterCategory":1,"la1":30.2991,"la2":30.254,"lo1":-89.0895,"lo2":-89.0444,"dy":0.0017,"dx":0.0017,"nx":28,"ny":28,"refTime":"2024-03-22T21:00:00:Z","depth":0,"parameterNumber":3,"parameterNumberName":"V-component_of_WINDS"},"data":[0,0,0,0,0,0,0,0,0,0,0,0,0,0,0,0,0,0,0,0,0,0,0,0,0,0,0,0,0,0,0,0,0,0,0,0,0,0,0,0,0,0,0,0,0,0,0,0,0,0,0,0,0,0,0,0,0,0,-5.4143,-5.4143,0,-5.4172,-5.4173,-5.4173,-5.4142,-5.4141,-5.414,-5.4139,-5.4165,-5.4167,-5.4169,0,0,0,0,0,0,0,0,0,0,0,0,0,-5.4058,-5.406,-5.4143,-5.4143,-5.4144,-5.4172,-5.4173,-5.4173,-5.4142,-5.4141,-5.4139,-5.4138,-5.4165,-5.4167,-5.4169,0,0,0,0,0,0,0,0,0,0,0,0,0,-5.4092,-5.4061,-5.4143,-5.4132,-5.4131,-5.4172,-5.4173,-5.4173,-5.4143,-5.4141,-5.4139,-5.4137,-5.4164,-5.4167,-5.4169,-5.4221,0,0,-5.4177,-5.4179,0,0,0,0,0,0,0,0,-5.409,-5.4095,-5.4133,-5.4133,-5.4132,-5.4152,-5.4152,-5.4189,-5.4143,-5.4138,-5.4139,-5.4137,-5.4162,-5.4165,-5.4174,-5.4223,-5.4224,-5.4178,-5.4179,-5.4181,-5.4181,0,0,0,0,0,0,0,-5.4088,-5.4094,-5.4154,-5.4134,-5.4133,-5.4125,-5.4128,-5.4159,-5.4159,-5.4138,-5.4136,-5.414,-5.4161,-5.4171,-5.4174,-5.4224,-5.4178,-5.418,-5.4182,-5.4183,-5.4317,-5.4319,0,0,0,0,0,0,-5.4087,-5.4092,-5.4154,-5.4155,-5.4106,-5.4128,-5.4131,-5.4147,-5.4159,-5.4159,-5.4142,-5.4139,-5.4168,-5.4171,-5.4175,-5.4237,-5.4181,-5.4183,-5.4185,-5.4315,-5.4318,-5.432,0,0,0,0,0,0,-5.4085,-5.4093,-5.4152,-5.4123,-5.413,-5.4131,-5.415,-5.4149,-5.4159,-5.4162,-5.4161,-5.4152,-5.4166,-5.4171,-5.421,-5.4237,-5.4184,-5.4187,-5.4313,-5.4316,-5.4319,-5.4361,0,0,0,0,0,0,-5.4083,-5.4092,-5.4113,-5.4124,-5.4132,-5.4188,-5.4151,-5.4151,-5.4164,-5.416,-5.4171,-5.4172,-5.4165,-5.4207,-5.4213,-5.424,-5.4189,-5.431,-5.4314,-5.4318,-5.4357,-5.4365,-5.4372,0,0,0,0,0,-5.408,-5.4123,-5.4114,-5.4122,-5.4157,-5.419,-5.4194,-5.4187,-5.4166,-5.4186,-5.4188,-5.4171,-5.4234,-5.4211,-5.4218,-5.4246,-5.4309,-5.4313,-5.4317,-5.4354,-5.4364,-5.4372,0,0,0,0,0,0,-5.4113,-5.4124,-5.4114,-5.4162,-5.4175,-5.4184,-5.4209,-5.4197,-5.4216,-5.4211,-5.4201,-5.4204,-5.4245,-5.425,-5.4224,-5.4297,-5.4268,-5.4274,-5.4293,-5.4302,-5.4309,-5.4307,-5.4191,0,0,0,0,0,-5.4126,-5.4153,-5.416,-5.4201,-5.4209,-5.4208,-5.4222,-5.4216,-5.4228,-5.4234,-5.4238,-5.4251,-5.4273,-5.4288,-5.4309,-5.4358,-5.436,-5.4381,-5.4388,-5.4394,-5.4399,-5.4426,-5.4435,-5.4334,-5.4334,-5.4334,0,0,-5.4153,-5.4162,-5.4179,-5.4208,-5.4218,-5.4245,-5.4213,-5.4242,-5.4262,-5.4238,-5.4275,-5.4279,-5.4292,-5.4337,-5.4357,-5.4342,-5.4428,-5.44,-5.4405,-5.4406,-5.4431,-5.4441,-5.4449,-5.4337,-5.4336,-5.4336,0,0,-5.4215,-5.4225,-5.4261,-5.4272,-5.4287,-5.4287,-5.4296,-5.4307,-5.4309,-5.4347,-5.4329,-5.4352,-5.4391,-5.4401,-5.4411,-5.4479,-5.4464,-5.4486,-5.4524,-5.455,-5.4558,-5.4565,-5.4589,-5.4597,-5.4491,-5.4491,-5.4492,0,-5.4246,-5.4287,-5.428,-5.4312,-5.4325,-5.4306,-5.4342,-5.4352,-5.4373,-5.4382,-5.4366,-5.4415,-5.4422,-5.4469,-5.4486,-5.4495,-5.4504,-5.4484,-5.4557,-5.4564,-5.4571,-5.4593,-5.4602,-5.4494,-5.4494,-5.4493,-5.4493,0,-5.4324,-5.4352,-5.4379,-5.4402,-5.4418,-5.4451,-5.4449,-5.4466,-5.4459,-5.446,-5.4499,-5.4507,-5.453,-5.4541,-5.4533,-5.4586,-5.4577,-5.4559,-5.4529,-5.4583,-5.4604,-5.4613,-5.4498,-5.4497,-5.4496,-5.4495,0,0,-5.4406,-5.4426,-5.4436,-5.4446,-5.4463,-5.4484,-5.4517,-5.454,-5.4555,-5.457,-5.4596,-5.4631,-5.4615,-5.4626,-5.462,-5.4643,-5.4696,-5.4622,-5.4622,-5.4635,-5.4755,-5.4768,-5.4778,-5.4687,-5.4688,-5.469,-5.4754,0,-5.4469,-5.4526,-5.4522,-5.4576,-5.4602,-5.4585,-5.4613,-5.4626,-5.4628,-5.465,-5.4652,-5.4676,-5.4653,-5.466,-5.4683,-5.4685,-5.472,-5.468,-5.471,-5.4711,-5.4707,-5.4789,-5.4802,-5.4863,-5.4762,-5.4763,-5.4764,0,-5.4549,-5.4569,-5.4626,-5.4639,-5.465,-5.4676,-5.4697,-5.4718,-5.4732,-5.4732,-5.4746,-5.4736,-5.4768,-5.4738,-5.4782,-5.4755,-5.4767,-5.477,-5.4773,-5.4774,-5.474,-5.4792,-5.4882,-5.489,-5.4777,-5.4776,-5.4775,0,-5.4603,-5.4644,-5.4684,-5.4693,-5.471,-5.4728,-5.4736,-5.4748,-5.4763,-5.4781,-5.479,-5.4812,-5.4823,-5.484,-5.4836,-5.4814,-5.488,-5.485,-5.488,-5.488,-5.4894,-5.4893,-5.4986,-5.4903,-5.4903,-5.4903,-5.4903,0,-5.4673,-5.4708,-5.4708,-5.4732,-5.4771,-5.4766,-5.4805,-5.481,-5.4822,-5.4846,-5.4832,-5.4855,-5.4849,-5.4871,-5.4868,-5.4905,-5.491,-5.491,-5.4909,-5.4911,-5.4911,-5.4918,-5.4913,-5.4905,-5.4905,-5.4904,-5.4904,0,-5.4739,-5.4741,-5.4783,-5.4796,-5.48,-5.4828,-5.4839,-5.4861,-5.4863,-5.4894,-5.4901,-5.4903,-5.4929,-5.4927,-5.4956,-5.4954,-5.4999,-5.4993,-5.4994,-5.4993,-5.5023,-5.502,-5.5123,-5.5136,-5.5046,-5.5047,-5.5047,0,-5.4783,-5.481,-5.4827,-5.4843,-5.4852,-5.4878,-5.4893,-5.4889,-5.4906,-5.4925,-5.4945,-5.497,-5.4989,-5.5031,-5.5035,-5.5057,-5.5051,-5.5085,-5.5054,-5.5055,-5.505,-5.5049,-5.5051,-5.5091,-5.5092,-5.5093,-5.5094,0,-5.4861,-5.4861,-5.4884,-5.4908,-5.4927,-5.4945,-5.4962,-5.4975,-5.4973,-5.4992,-5.5019,-5.5035,-5.5065,-5.5089,-5.5111,-5.5117,-5.5105,-5.5104,-5.5112,-5.5114,-5.5113,-5.5114,-5.501,-5.5101,-5.51,-5.51,-5.5099,-5.5099,-5.4917,-5.494,-5.4956,-5.4982,-5.4995,-5.5011,-5.5033,-5.5039,-5.5061,-5.5087,-5.5083,-5.5113,-5.5127,-5.5154,-5.5163,-5.5186,-5.5174,-5.5185,-5.5188,-5.5191,-5.5194,-5.5111,-5.519,-5.519,-5.519,-5.519,-5.5189,0,-5.4993,-5.5003,-5.5027,-5.5052,-5.5073,-5.5062,-5.508,-5.5097,-5.5125,-5.5139,-5.5159,-5.5191,-5.5215,-5.5221,-5.5244,-5.5262,-5.5256,-5.5268,-5.5266,-5.5267,-5.5205,-5.5195,-5.5271,-5.5271,-5.5271,-5.5271,-5.5271,-5.5271,-5.5035,-5.5074,-5.5076,-5.5121,-5.5131,-5.5161,-5.5173,-5.5187,-5.5199,-5.5235,-5.5256,-5.526,-5.5272,-5.5296,-5.5317,-5.5318,-5.5327,-5.534,-5.5339,-5.528,-5.5272,-5.5264,-5.5255,-5.5343,-5.5343,-5.54,-5.5401,-5.5401]}]]